When you browse on this site, cookies collect data to enhance your experience and personalize the content and advertising you see.
Visit our Privacy Policy to learn more. By continuing to use the site, you agree to this use of cookies and data.
  • In Spain
  • List of Countries
  • For 7 days
  • Water Temperature
  • Weather Map
  • Weather Widgets
  • user-avatar
    Login

    Hourly Weather Lubumbashi

    Today, 20 October, Sunday

    Time Temperature Precipitation Wind Pressure Humidity
    00:00 +33°C° 0 mm 3 mps 719 mmHg 53%
    01:00 +31°C° 0 mm 3 mps 719 mmHg 57%
    02:00 +31°C° 0 mm 3 mps 718 mmHg 60%
    03:00 +30°C° 0 mm 3 mps 718 mmHg 62%
    04:00 +30°C° 0 mm 3 mps 719 mmHg 64%
    05:00 +29°C° 0 mm 3 mps 719 mmHg 66%
    06:00 +30°C° 0 mm 3 mps 719 mmHg 64%
    07:00 +30°C° 0 mm 3 mps 720 mmHg 62%
    08:00 +30°C° 0 mm 3 mps 720 mmHg 61%
    09:00 +31°C° 0 mm 2 mps 720 mmHg 57%
    10:00 +34°C° 0 mm 2 mps 720 mmHg 53%
    11:00 +35°C° 0 mm 2 mps 721 mmHg 49%
    12:00 +35°C° 0 mm 2 mps 720 mmHg 45%
    13:00 +35°C° 0 mm 1 mps 719 mmHg 42%
    14:00 +34°C° 0 mm 0 mps 718 mmHg 38%
    15:00 +36°C° 0.1 mm 1 mps 717 mmHg 40%
    16:00 +36°C° 0.1 mm 2 mps 717 mmHg 41%
    17:00 +36°C° 0.1 mm 3 mps 716 mmHg 43%
    18:00 +34°C° 2.1 mm 3 mps 717 mmHg 49%
    19:00 +33°C° 2.1 mm 4 mps 717 mmHg 55%
    20:00 +30°C° 2.1 mm 4 mps 718 mmHg 61%
    21:00 +30°C° 0.3 mm 4 mps 718 mmHg 62%
    22:00 +30°C° 0.3 mm 4 mps 719 mmHg 64%
    23:00 +29°C° 0.3 mm 5 mps 719 mmHg 65%

    Tomorrow, 21 October, Monday

    Time Temperature Precipitation Wind Pressure Humidity
    00:00 +29°C° 0.1 mm 4 mps 719 mmHg 66%
    01:00 +28°C° 0.1 mm 4 mps 718 mmHg 68%
    02:00 +28°C° 0.1 mm 4 mps 718 mmHg 69%
    03:00 +28°C° 0.1 mm 3 mps 718 mmHg 69%
    04:00 +28°C° 0.1 mm 3 mps 718 mmHg 70%
    05:00 +28°C° 0.1 mm 2 mps 718 mmHg 70%
    06:00 +28°C° 0 mm 2 mps 718 mmHg 68%
    07:00 +28°C° 0 mm 1 mps 719 mmHg 65%
    08:00 +29°C° 0 mm 1 mps 720 mmHg 63%
    09:00 +30°C° 0 mm 1 mps 720 mmHg 58%
    10:00 +32°C° 0 mm 2 mps 720 mmHg 53%
    11:00 +34°C° 0 mm 2 mps 720 mmHg 48%
    12:00 +35°C° 0 mm 2 mps 719 mmHg 45%
    13:00 +35°C° 0 mm 1 mps 718 mmHg 42%
    14:00 +36°C° 0 mm 1 mps 717 mmHg 39%
    15:00 +36°C° 0 mm 1 mps 717 mmHg 38%
    16:00 +36°C° 0 mm 1 mps 716 mmHg 37%
    17:00 +36°C° 0 mm 1 mps 716 mmHg 36%
    18:00 +35°C° 0 mm 1 mps 717 mmHg 38%
    19:00 +36°C° 0 mm 2 mps 717 mmHg 40%
    20:00 +35°C° 0 mm 3 mps 718 mmHg 42%
    21:00 +34°C° 0.6 mm 3 mps 718 mmHg 47%
    22:00 +33°C° 0.6 mm 3 mps 718 mmHg 53%
    23:00 +31°C° 0.6 mm 3 mps 718 mmHg 58%

    Day after tomorrow, 22 October, Tuesday

    Time Temperature Precipitation Wind Pressure Humidity
    00:00 +31°C° 0.1 mm 3 mps 717 mmHg 59%
    01:00 +32°C° 0.1 mm 4 mps 717 mmHg 61%
    02:00 +30°C° 0.1 mm 4 mps 717 mmHg 62%
    03:00 +30°C° 0 mm 4 mps 717 mmHg 65%
    04:00 +30°C° 0 mm 3 mps 717 mmHg 67%
    05:00 +29°C° 0 mm 3 mps 717 mmHg 70%
    06:00 +29°C° 0 mm 3 mps 718 mmHg 68%
    07:00 +30°C° 0 mm 3 mps 718 mmHg 66%
    08:00 +30°C° 0 mm 3 mps 719 mmHg 65%
    09:00 +31°C° 0 mm 3 mps 719 mmHg 61%
    10:00 +31°C° 0 mm 3 mps 719 mmHg 57%
    11:00 +33°C° 0 mm 3 mps 719 mmHg 54%
    12:00 +34°C° 0 mm 3 mps 718 mmHg 51%
    13:00 +35°C° 0 mm 2 mps 717 mmHg 48%
    14:00 +35°C° 0 mm 2 mps 716 mmHg 45%
    15:00 +35°C° 0.1 mm 2 mps 716 mmHg 44%
    16:00 +35°C° 0.1 mm 2 mps 716 mmHg 44%
    17:00 +35°C° 0.1 mm 2 mps 716 mmHg 43%
    18:00 +34°C° 0.3 mm 3 mps 716 mmHg 48%
    19:00 +33°C° 0.3 mm 3 mps 717 mmHg 53%
    20:00 +32°C° 0.3 mm 4 mps 717 mmHg 57%
    21:00 +32°C° 0.1 mm 4 mps 717 mmHg 58%
    22:00 +31°C° 0.1 mm 3 mps 717 mmHg 58%
    23:00 +31°C° 0.1 mm 2 mps 717 mmHg 59%

    23 October, Wednesday

    Time Temperature Precipitation Wind Pressure Humidity
    00:00 +30°C° 0 mm 3 mps 717 mmHg 60%
    01:00 +30°C° 0 mm 3 mps 717 mmHg 61%
    02:00 +30°C° 0 mm 3 mps 717 mmHg 63%
    03:00 +29°C° 0 mm 3 mps 717 mmHg 66%
    04:00 +29°C° 0 mm 3 mps 717 mmHg 69%
    05:00 +28°C° 0 mm 3 mps 717 mmHg 73%
    06:00 +29°C° 0 mm 3 mps 718 mmHg 70%
    07:00 +29°C° 0 mm 3 mps 718 mmHg 68%
    08:00 +30°C° 0 mm 3 mps 719 mmHg 66%
    09:00 +31°C° 0 mm 3 mps 719 mmHg 61%
    10:00 +33°C° 0 mm 3 mps 719 mmHg 55%
    11:00 +34°C° 0 mm 3 mps 719 mmHg 50%
    12:00 +35°C° 0 mm 3 mps 718 mmHg 47%
    13:00 +36°C° 0 mm 2 mps 717 mmHg 43%
    14:00 +37°C° 0 mm 2 mps 717 mmHg 40%
    15:00 +37°C° 0 mm 2 mps 716 mmHg 39%
    16:00 +36°C° 0 mm 1 mps 716 mmHg 37%
    17:00 +34°C° 0 mm 0 mps 716 mmHg 36%
    18:00 +35°C° 0 mm 1 mps 717 mmHg 38%
    19:00 +36°C° 0 mm 2 mps 717 mmHg 39%
    20:00 +35°C° 0 mm 2 mps 717 mmHg 41%
    21:00 +35°C° 0 mm 3 mps 717 mmHg 44%
    22:00 +34°C° 0 mm 3 mps 717 mmHg 48%
    23:00 +33°C° 0 mm 3 mps 717 mmHg 51%

    24 October, Thursday

    Time Temperature Precipitation Wind Pressure Humidity
    00:00 +31°C° 0 mm 3 mps 717 mmHg 54%
    01:00 +31°C° 0 mm 3 mps 717 mmHg 57%
    02:00 +30°C° 0 mm 2 mps 717 mmHg 59%
    03:00 +30°C° 0 mm 3 mps 717 mmHg 61%
    04:00 +30°C° 0 mm 3 mps 717 mmHg 63%
    05:00 +29°C° 0 mm 3 mps 717 mmHg 65%
    06:00 +30°C° 0 mm 4 mps 718 mmHg 64%
    07:00 +30°C° 0 mm 4 mps 719 mmHg 63%
    08:00 +30°C° 0 mm 4 mps 719 mmHg 63%
    09:00 +33°C° 0 mm 4 mps 719 mmHg 57%
    10:00 +34°C° 0 mm 3 mps 719 mmHg 51%
    11:00 +35°C° 0 mm 3 mps 719 mmHg 45%
    12:00 +36°C° 0 mm 3 mps 718 mmHg 41%
    13:00 +37°C° 0 mm 2 mps 717 mmHg 37%
    14:00 +38°C° 0 mm 2 mps 716 mmHg 33%
    15:00 +37°C° 0 mm 1 mps 716 mmHg 32%
    16:00 +37°C° 0 mm 1 mps 716 mmHg 31%
    17:00 +37°C° 0 mm 1 mps 716 mmHg 30%
    18:00 +37°C° 0 mm 1 mps 717 mmHg 32%
    19:00 +36°C° 0 mm 1 mps 717 mmHg 34%
    20:00 +34°C° 0 mm 0 mps 717 mmHg 36%
    21:00 +35°C° 0 mm 1 mps 717 mmHg 38%
    22:00 +35°C° 0 mm 2 mps 717 mmHg 40%
    23:00 +34°C° 0 mm 3 mps 717 mmHg 43%

    25 October, Friday

    Time Temperature Precipitation Wind Pressure Humidity
    00:00 +32°C° 0 mm 2 mps 717 mmHg 48%
    01:00 +32°C° 0 mm 2 mps 717 mmHg 53%
    02:00 +31°C° 0 mm 2 mps 717 mmHg 58%
    03:00 +30°C° 0 mm 2 mps 717 mmHg 60%
    04:00 +30°C° 0 mm 2 mps 717 mmHg 62%
    05:00 +29°C° 0 mm 2 mps 717 mmHg 65%
    06:00 +30°C° 0 mm 2 mps 718 mmHg 63%
    07:00 +30°C° 0 mm 2 mps 718 mmHg 62%
    08:00 +30°C° 0 mm 3 mps 719 mmHg 60%
    09:00 +32°C° 0 mm 2 mps 719 mmHg 55%
    10:00 +34°C° 0 mm 2 mps 719 mmHg 50%
    11:00 +35°C° 0 mm 2 mps 719 mmHg 45%
    12:00 +35°C° 0 mm 1 mps 718 mmHg 41%
    13:00 +36°C° 0 mm 1 mps 717 mmHg 38%
    14:00 +36°C° 0 mm 1 mps 716 mmHg 34%
    15:00 +37°C° 0 mm 1 mps 716 mmHg 33%
    16:00 +37°C° 0 mm 1 mps 716 mmHg 32%
    17:00 +37°C° 0 mm 1 mps 716 mmHg 31%
    18:00 +38°C° 0 mm 2 mps 716 mmHg 32%
    19:00 +37°C° 0 mm 3 mps 716 mmHg 33%
    20:00 +37°C° 0 mm 3 mps 717 mmHg 34%
    21:00 +36°C° 0.1 mm 3 mps 717 mmHg 36%
    22:00 +36°C° 0.1 mm 3 mps 717 mmHg 39%
    23:00 +35°C° 0.1 mm 3 mps 717 mmHg 42%
    Show more